Weather History for West Palm Beach, FL

Change the Weather History Date:

Sunday, February 12, 2012

  Actual Average Record
Temperature  
Mean Temperature 53 °F 68 °F  
Max Temperature 60 °F 76 °F 87 °F (1975)
Min Temperature 45 °F 59 °F 33 °F (1919)
Degree Days  
Heating Degree Days 12 2  
Month to date heating degree days 14 24  
Since 1 July heating degree days 101 181  
Cooling Degree Days 0 4  
Month to date cooling degree days 84 48  
Year to date cooling degree days 189 156  
Growing Degree Days 1 (Base 50)    
Moisture  
Dew Point 38 °F    
Average Humidity 65    
Maximum Humidity 82    
Minimum Humidity 47    
Precipitation  
Precipitation 0.00 in 0.10 in 2.66 in (1984)
Month to date precipitation 2.95 1.14  
Year to date precipitation 3.33 4.27  
Snow  
Snow 0.00 in - - ()
Month to date snowfall 0.0  
Since 1 July snowfall 0.0  
Snow Depth 0.00 in    
Sea Level Pressure  
Sea Level Pressure 30.19 in    
Wind  
Wind Speed 17 mph (NNW)    
Max Wind Speed 24 mph    
Max Gust Speed 30 mph    
Visibility 10 miles    
Events      
T = Trace of Precipitation, MM = Missing Value Source: NWS Daily Summary

Daily Weather History Graph

Daily Weather History Graph

Search for Another Location

Airport:

Trip Planner

Search our weather history database for the weather conditions in past years. The results will help you decide how hot, cold, wet, or windy it might be!

Date:

Astronomy

Feb. 12, 2012 Rise Set
Actual Time 6:59 AM EST 6:10 PM EST
Civil Twilight 6:35 AM EST 6:34 PM EST
Nautical Twilight 6:07 AM EST 7:01 PM EST
Astronomical Twilight 5:40 AM EST 7:28 PM EST
Moon 11:25 PM EST (2/12) 9:54 AM EST (2/12)
Length of Visible Light 11h 58m
Length of Day
11h 11m
Waning Gibbous, 72% of the Moon is Illuminated
Feb 12
Waning Gibbous
Feb 14
Last Quarter
Feb 21
New
Feb 29
First Quarter
Mar 8
Full

Hourly Weather History & Observations

Time (EST) Temp. Windchill Dew Point Humidity Pressure Visibility Wind Dir Wind Speed Gust Speed Precip Events Conditions
12:53 AM 53.1 °F - 42.1 °F 66% 30.08 in 10.0 mi NW 17.3 mph 24.2 mph N/A   Partly Cloudy
1:53 AM 51.1 °F - 41.0 °F 68% 30.09 in 10.0 mi NNW 18.4 mph 25.3 mph N/A   Partly Cloudy
2:53 AM 51.1 °F - 37.0 °F 59% 30.10 in 10.0 mi NNW 18.4 mph 27.6 mph N/A   Partly Cloudy
3:53 AM 50.0 °F - 36.0 °F 59% 30.12 in 10.0 mi NW 18.4 mph 24.2 mph N/A   Clear
4:53 AM 48.0 °F - 33.1 °F 56% 30.13 in 10.0 mi NNW 15.0 mph 23.0 mph N/A   Clear
5:53 AM 46.9 °F - 30.0 °F 52% 30.15 in 10.0 mi NNW 18.4 mph 27.6 mph N/A   Clear
6:53 AM 46.0 °F 39.0 °F 28.9 °F 51% 30.18 in 10.0 mi NNW 17.3 mph - N/A   Mostly Cloudy
7:53 AM 45.0 °F 36.9 °F 30.0 °F 56% 30.20 in 10.0 mi NNW 20.7 mph 26.5 mph N/A   Mostly Cloudy
8:53 AM 46.9 °F - 33.1 °F 59% 30.23 in 10.0 mi NNW 17.3 mph - N/A   Mostly Cloudy
9:53 AM 50.0 °F - 35.1 °F 57% 30.24 in 10.0 mi NNW 18.4 mph 25.3 mph N/A   Mostly Cloudy
10:53 AM 52.0 °F - 36.0 °F 54% 30.27 in 10.0 mi NNW 16.1 mph 26.5 mph N/A   Mostly Cloudy
11:53 AM 54.0 °F - 37.9 °F 55% 30.25 in 10.0 mi North 19.6 mph 25.3 mph N/A   Mostly Cloudy
12:53 PM 57.0 °F - 41.0 °F 55% 30.23 in 10.0 mi NNW 19.6 mph - N/A   Mostly Cloudy
1:53 PM 57.0 °F - 37.0 °F 47% 30.20 in 10.0 mi North 18.4 mph 23.0 mph N/A   Mostly Cloudy
2:53 PM 57.9 °F - 39.0 °F 49% 30.19 in 10.0 mi North 18.4 mph 21.9 mph N/A   Scattered Clouds
3:53 PM 57.9 °F - 39.9 °F 51% 30.18 in 10.0 mi North 16.1 mph - N/A   Scattered Clouds
4:53 PM 57.0 °F - 41.0 °F 55% 30.19 in 10.0 mi North 17.3 mph - N/A   Partly Cloudy
5:53 PM 54.0 °F - 41.0 °F 62% 30.20 in 10.0 mi NNW 13.8 mph - N/A   Scattered Clouds
6:53 PM 52.0 °F - 42.1 °F 69% 30.22 in 10.0 mi NNW 15.0 mph - N/A   Scattered Clouds
7:53 PM 50.0 °F - 41.0 °F 71% 30.22 in 10.0 mi NW 12.7 mph - N/A   Scattered Clouds
8:53 PM 48.9 °F - 39.9 °F 71% 30.23 in 10.0 mi NW 13.8 mph - N/A   Partly Cloudy
9:53 PM 48.0 °F - 39.9 °F 74% 30.24 in 10.0 mi NW 12.7 mph - N/A   Partly Cloudy
10:53 PM 46.9 °F - 41.0 °F 80% 30.24 in 10.0 mi NW 15.0 mph - N/A   Partly Cloudy
11:53 PM 46.9 °F - 41.0 °F 80% 30.23 in 10.0 mi NW 9.2 mph - N/A   Partly Cloudy